TimeCST,TemperatureF,Dew PointF,Humidity,Sea Level PressureIn,VisibilityMPH,Wind Direction,Wind SpeedMPH,Gust SpeedMPH,PrecipitationIn,Events,Conditions,WindDirDegrees,DateUTC
12:15 AM,32.0,28.4,87,30.25,7.0,North,6.9,-,N/A,,Overcast,10,2013-01-14 06:15:00
12:55 AM,32.0,28.4,87,30.25,7.0,NE,8.1,-,N/A,,Overcast,40,2013-01-14 06:55:00
1:15 AM,32.0,28.4,87,30.25,7.0,NNE,3.5,-,N/A,,Overcast,20,2013-01-14 07:15:00
1:35 AM,32.0,26.6,80,30.28,7.0,North,5.8,-,N/A,,Overcast,360,2013-01-14 07:35:00
1:55 AM,30.2,26.6,86,30.27,7.0,NE,4.6,-,N/A,,Overcast,40,2013-01-14 07:55:00
2:15 AM,30.2,26.6,86,30.28,8.0,NNE,9.2,-,N/A,,Scattered Clouds,30,2013-01-14 08:15:00
2:35 AM,30.2,26.6,86,30.27,8.0,NNE,9.2,-,N/A,,Scattered Clouds,20,2013-01-14 08:35:00
2:55 AM,30.2,26.6,86,30.27,8.0,NNE,9.2,-,N/A,,Overcast,20,2013-01-14 08:55:00
3:15 AM,28.4,24.8,86,30.27,8.0,North,8.1,-,N/A,,Mostly Cloudy,10,2013-01-14 09:15:00
3:35 AM,28.4,24.8,86,30.27,8.0,NNE,6.9,-,N/A,,Mostly Cloudy,20,2013-01-14 09:35:00
3:55 AM,28.4,24.8,86,30.27,8.0,NNE,13.8,-,N/A,,Mostly Cloudy,30,2013-01-14 09:55:00
4:35 AM,28.4,24.8,86,30.27,8.0,NNE,8.1,-,N/A,,Mostly Cloudy,30,2013-01-14 10:35:00
4:55 AM,28.4,24.8,86,30.26,8.0,NNE,8.1,-,N/A,,Mostly Cloudy,20,2013-01-14 10:55:00
5:35 AM,28.4,23.0,80,30.26,8.0,North,8.1,-,N/A,,Overcast,10,2013-01-14 11:35:00
5:55 AM,28.4,23.0,80,30.26,8.0,North,13.8,17.3,N/A,,Overcast,10,2013-01-14 11:55:00
6:15 AM,26.6,23.0,86,30.26,8.0,North,9.2,-,N/A,,Overcast,10,2013-01-14 12:15:00
6:35 AM,26.6,23.0,86,30.25,8.0,NE,6.9,-,N/A,,Mostly Cloudy,50,2013-01-14 12:35:00
6:55 AM,26.6,23.0,86,30.24,8.0,NE,12.7,18.4,N/A,,Mostly Cloudy,50,2013-01-14 12:55:00
7:15 AM,26.6,23.0,86,30.26,6.0,NNE,8.1,-,N/A,,Haze,20,2013-01-14 13:15:00
7:35 AM,26.6,23.0,86,30.27,5.0,NE,9.2,-,N/A,,Haze,40,2013-01-14 13:35:00
7:55 AM,26.6,23.0,86,30.28,6.0,NE,8.1,-,N/A,,Overcast,40,2013-01-14 13:55:00
8:15 AM,28.4,23.0,80,30.28,6.0,NNE,8.1,-,N/A,,Haze,20,2013-01-14 14:15:00
8:35 AM,28.4,24.8,86,30.32,6.0,North,8.1,-,N/A,,Overcast,350,2013-01-14 14:35:00
8:55 AM,28.4,24.8,86,30.30,5.0,North,10.4,-,N/A,,Haze,360,2013-01-14 14:55:00
9:35 AM,28.4,24.8,86,30.29,7.0,North,9.2,-,N/A,,Overcast,10,2013-01-14 15:35:00
9:55 AM,30.2,24.8,80,30.28,7.0,NNE,10.4,-,N/A,,Overcast,20,2013-01-14 15:55:00
10:15 AM,30.2,24.8,80,30.26,7.0,NNE,9.2,-,N/A,,Mostly Cloudy,20,2013-01-14 16:15:00
10:35 AM,28.4,24.8,86,30.24,4.0,North,10.4,-,N/A,Rain,Freezing Rain,10,2013-01-14 16:35:00
10:55 AM,28.4,24.8,86,30.28,7.0,North,9.2,-,N/A,,Mostly Cloudy,350,2013-01-14 16:55:00
11:15 AM,28.4,24.8,86,30.31,2.0,North,8.1,18.4,0.03,Rain,Freezing Rain,360,2013-01-14 17:15:00
11:35 AM,28.4,24.8,86,30.38,4.0,NNW,11.5,16.1,0.05,Rain,Freezing Rain,330,2013-01-14 17:35:00
12:15 PM,28.4,24.8,86,30.28,1.8,Calm,Calm,-,0.07,Rain,Freezing Rain,0,2013-01-14 18:15:00
12:35 PM,28.4,24.8,86,30.30,5.0,Calm,Calm,-,0.11,Rain,Freezing Rain,0,2013-01-14 18:35:00
12:55 PM,28.4,24.8,86,30.28,2.0,Calm,Calm,-,0.15,Rain,Freezing Rain,0,2013-01-14 18:55:00
1:35 PM,28.4,24.8,86,30.27,2.5,Calm,Calm,-,0.03,Rain,Freezing Rain,0,2013-01-14 19:35:00
1:55 PM,28.4,24.8,86,30.29,3.0,Calm,Calm,-,0.04,Rain,Freezing Rain,0,2013-01-14 19:55:00
2:15 PM,28.4,24.8,86,30.30,3.0,Calm,Calm,-,N/A,Rain,Freezing Rain,0,2013-01-14 20:15:00
2:35 PM,28.4,24.8,86,30.29,2.5,Calm,Calm,-,0.04,Rain,Freezing Rain,0,2013-01-14 20:35:00
2:55 PM,28.4,26.6,93,30.29,3.0,Calm,Calm,-,0.07,Rain,Freezing Rain,0,2013-01-14 20:55:00
3:15 PM,28.4,26.6,93,30.30,4.0,Calm,Calm,-,N/A,Rain,Freezing Rain,0,2013-01-14 21:15:00
3:35 PM,28.4,26.6,93,30.25,3.0,Calm,Calm,-,0.01,Rain,Freezing Rain,0,2013-01-14 21:35:00
3:55 PM,28.4,26.6,93,30.28,3.0,Calm,Calm,-,0.02,Rain,Freezing Rain,0,2013-01-14 21:55:00
4:15 PM,28.4,26.6,93,30.30,5.0,Calm,Calm,-,N/A,Rain,Freezing Rain,0,2013-01-14 22:15:00
4:35 PM,28.4,26.6,93,30.29,6.0,Calm,Calm,-,N/A,Rain,Freezing Rain,0,2013-01-14 22:35:00
4:55 PM,28.4,26.6,93,30.30,6.0,Calm,Calm,-,N/A,,Partly Cloudy,0,2013-01-14 22:55:00
5:15 PM,28.4,26.6,93,30.30,8.0,Calm,Calm,-,N/A,,Mostly Cloudy,0,2013-01-14 23:15:00
5:35 PM,28.4,26.6,93,30.29,8.0,Calm,Calm,-,N/A,,Mostly Cloudy,0,2013-01-14 23:35:00
5:55 PM,28.4,26.6,93,30.29,8.0,Calm,Calm,-,N/A,,Mostly Cloudy,0,2013-01-14 23:55:00
6:15 PM,30.2,28.4,93,30.29,8.0,Calm,Calm,-,N/A,,Mostly Cloudy,0,2013-01-15 00:15:00
6:35 PM,30.2,28.4,93,30.29,8.0,Calm,Calm,-,N/A,,Overcast,0,2013-01-15 00:35:00
6:55 PM,30.2,28.4,93,30.28,7.0,Calm,Calm,-,N/A,,Mostly Cloudy,0,2013-01-15 00:55:00
7:15 PM,30.2,28.4,93,30.27,8.0,Calm,Calm,-,N/A,,Mostly Cloudy,0,2013-01-15 01:15:00
7:35 PM,30.2,28.4,93,30.27,8.0,Calm,Calm,-,N/A,,Overcast,0,2013-01-15 01:35:00
7:55 PM,28.4,28.4,100,30.27,8.0,Calm,Calm,-,N/A,,Mostly Cloudy,0,2013-01-15 01:55:00
8:15 PM,28.4,28.4,100,30.26,7.0,Calm,Calm,-,N/A,,Overcast,0,2013-01-15 02:15:00
8:35 PM,28.4,28.4,100,30.26,8.0,Calm,Calm,-,N/A,,Overcast,0,2013-01-15 02:35:00
8:55 PM,28.4,28.4,100,30.25,7.0,Calm,Calm,-,N/A,,Overcast,0,2013-01-15 02:55:00
9:15 PM,28.4,28.4,100,30.25,8.0,Calm,Calm,-,N/A,,Overcast,0,2013-01-15 03:15:00
9:35 PM,28.4,26.6,93,30.24,7.0,Calm,Calm,-,N/A,,Overcast,0,2013-01-15 03:35:00
9:55 PM,28.4,26.6,93,30.24,7.0,Calm,Calm,-,N/A,,Overcast,0,2013-01-15 03:55:00
10:15 PM,28.4,26.6,93,30.24,8.0,Calm,Calm,-,N/A,,Overcast,0,2013-01-15 04:15:00
10:35 PM,28.4,26.6,93,30.23,7.0,Calm,Calm,-,N/A,,Overcast,0,2013-01-15 04:35:00
10:55 PM,28.4,26.6,93,30.24,7.0,Calm,Calm,-,N/A,,Overcast,0,2013-01-15 04:55:00
11:15 PM,28.4,26.6,93,30.24,7.0,Calm,Calm,-,N/A,,Overcast,0,2013-01-15 05:15:00
11:35 PM,28.4,26.6,93,30.24,7.0,Calm,Calm,-,N/A,,Overcast,0,2013-01-15 05:35:00
11:55 PM,28.4,26.6,93,30.24,7.0,Calm,Calm,-,N/A,,Overcast,0,2013-01-15 05:55:00